User: anonymous   Login
Location: Bourg-d�Oueil
(42.8588°N, 0.4991°E)
Time: 10:26:21
(UTC+00:00)
Language:

Cosmos 1626 - Orbit

View from above orbital plane
View from above orbital plane
View from above satellite
View from above satellite

Ground track
Ground track

The orbit data is extracted from the following two-line orbital elements,

1 15494U 85009A   21265.65456734  .00000908  00000-0  34942-4 0  9994
2 15494  82.4773 127.3285 0002586  28.3663 331.7715 15.25080500  5786
Epoch (UTC): 22 September 2021 15:42:34
Eccentricity: 0.0002586
inclination: 82.4773°
perigee height: 489 km
apogee height: 492 km
right ascension of ascending node: 127.3285°
argument of perigee: 28.3663°
revolutions per day: 15.25080500
mean anomaly at epoch: 331.7715°
orbit number at epoch: 578

The dashed part of the orbit path shows where the satellite is in the earth's shadow,  

DLR